Other Public Products
Issued by NWS Grand Forks, ND

Home | Current Version | Previous Version | Graphics & Text | Print | Product List | Glossary On
Versions: 1 2 3 4 5 6 7 8 9 10 11 12 13 14 15 16 17 18 19 20 21 22 23 24 25 26 27 28 29 30 31 32 33 34 35 36 37 38 39 40 41 42 43 44 45 46 47 48 49 50
000
FPUS83 KFGF 012231
OPUFGF
PRAIRIE TO PINES WEATHER ROUNDUP
NATIONAL WEATHER SERVICE EASTERN NORTH DAKOTA/GRAND FORKS ND
500 PM CDT WED JUL 01 2015

 **SATELLITE DATA USED TO AUGMENT SKY COVER AT AUTOMATED STATIONS**
 *****  WEATHER ACROSS EASTERN NORTH DAKOTA  *****

CITY           SKY/WX    TMP DP  RH WIND       PRES   REMARKS
GRAND FORKS    MOSUNNY   78  60  53 SW6       29.93S
GRAND FORKS AF PTSUNNY   78  59  51 S9        29.95R
GRAND CITY NWS   N/A     81 N/A N/A SW7         N/A
BUXTON         NOT AVBL
DEVILS LAKE    SUNNY     75  57  53 SE6       29.94S
FARGO          MOSUNNY   76  61  59 S9        29.95F
WAHPETON ARPT  CLEAR     72  54  53 S9        29.98S
$$

 *****  WEATHER ACROSS CENTRAL AND WESTERN NORTH DAKOTA  *****

CITY           SKY/WX    TMP DP  RH WIND       PRES   REMARKS
JAMESTOWN      MOSUNNY   76  61  59 SE6       29.95S
BISMARCK       CLOUDY    77  64  64 E5        29.94F
MINOT          PTSUNNY   74  62  66 VRB5      29.95F HAZE
MINOT AFB      PTSUNNY   74  71  88 VRB5      29.94F
GARRISON         N/A     76  64  66 N7        29.95F
WILLISTON      SUNNY     79  58  48 NW7       29.97F HAZE
DICKINSON      SUNNY     73  61  65 S5        29.98F
HETTINGER      MOSUNNY   75  61  61 CALM      29.99F
$$

 *****  OTHER OBSERVATIONS NORTHEAST NORTH DAKOTA  *****

CITY           SKY/WX    TMP DP  RH WIND       PRES   REMARKS
WALHALLA       FAIR      77  59  53 MISG      29.93F
LANGDON        MOCLDY    75  61  60 SW6       29.97S
CAVALIER       FAIR      77  55  47 S6        29.93F
GRAFTON        FAIR      79  57  47 VRB6G12   29.94S
CANDO          FAIR      73  61  64 SE3       29.96S
FORT TOTTEN      N/A     78  57  48 S5        29.95S
ROLLA            N/A     72  61  68 CALM      29.97S
RUGBY          NOT AVBL
 ***** THE ABOVE OBSERVATIONS ARE NON NWS ARE NOT QUALITY
        CONTROLLED AND MAY MIS-REPORT RAIN FOR SNOW...
$$

 *****  OTHER OBSERVATIONS SOUTHEAST NORTH DAKOTA *****

CITY           SKY/WX    TMP DP  RH WIND       PRES   REMARKS
COOPERSTOWN    NOT AVBL
VALLEY CITY    CLOUDY    73  64  73 S8        29.96S
OAKES            N/A     73  66  78 SE8       29.95S
GWINNER        NOT AVBL
SHEYENNE NWR     N/A     76  60  57 SE9       29.95S
BUFFALO        NOT AVBL
WYNDMERE       NOT AVBL
 ***** THE ABOVE OBSERVATIONS ARE NON NWS ARE NOT QUALITY
       CONTROLLED AND MAY MIS-REPORT RAIN FOR SNOW...
$$

  *****  WEATHER ACROSS NORTHERN MINNESOTA  *****

CITY           SKY/WX    TMP DP  RH WIND       PRES   REMARKS
FLAG ISLAND    MOSUNNY   73  61  64 S8        29.93S
WARROAD        MOSUNNY   79  61  53 W5        29.94S
ROSEAU         MOSUNNY   77  59  53 W3        29.95R
HALLOCK        MOSUNNY   79  59  50 SW5       29.93S
THF RVR FALLS  SUNNY     79  57  47 SW8       29.95S
HALSTAD        NOT AVBL
FOSSTON        SUNNY     79  59  50 W3        29.96F
BAUDETTE       SUNNY     79  51  37 CALM      29.94F
WASKISH        SUNNY     77  52  41 SW5       29.95S
CROOKSTON      SUNNY     77  61  57 SW8       29.95S
$$
  *****  WEATHER ACROSS CENTRAL AND WEST MINNESOTA  *****

CITY           SKY/WX    TMP DP  RH WIND       PRES   REMARKS
BEMIDJI        CLOUDY    74  59  58 SW6       29.96R
PARK RAPIDS    CLOUDY    78  57  48 SW12      29.97F
WADENA           N/A     73  54  49 SW7       29.99S
DETROIT LAKES  SUNNY     73  55  53 SW9       29.99S
MOORHEAD       SUNNY     73  61  64 S9        29.97S
FERGUS FALLS   SUNNY     73  55  53 S7        29.97F
ELBOW LAKE     FAIR      72  54  53 S9        29.99S
MORRIS MN      SUNNY     73  52  46 SE8       29.98S
STAPLES        PTSUNNY   73  54  49 SW7       29.99S
WHEATON        SUNNY     70  54  56 SE10      29.99S
$$
  *****  WEATHER ELSEWHERE ACROSS MINNESOTA  *****

CITY           SKY/WX    TMP DP  RH WIND       PRES   REMARKS
DULUTH         MOSUNNY   71  54  54 S6        29.99F
INTRNTL FALLS  SUNNY     78  49  35 CALM      29.95F
ELY            PTSUNNY   73  50  43 SW5       29.97F
CLOQUET        MOSUNNY   72  54  53 E5        29.98F
BRAINERD       PTSUNNY   75  53  46 SE7       29.99S
HIBBING        PTSUNNY   75  53  46 CALM      29.97F
ALEXANDRIA     SUNNY     72  54  53 SW9       30.01S
SAINT CLOUD    SUNNY     72  49  44 CALM      30.00S
MINNEAPOLIS    MOSUNNY   71  52  50 SE5       29.99F
$$

  *****  WEATHER ACROSS SOUTH DAKOTA  *****

CITY           SKY/WX    TMP DP  RH WIND       PRES   REMARKS
SIOUX FALLS    CLOUDY    74  63  68 SE10      29.94R
BROOKINGS      MOSUNNY   73  59  60 E10       29.98R
WATERTOWN      CLOUDY    70  57  63 E8        29.97S
HURON          PTSUNNY   77  65  66 SE7       29.90F
SISSETON         N/A     74  60  61 S10       29.95F
ABERDEEN       LGT RAIN  73  66  78 SE8       29.93S
MITCHELL       CLOUDY    78  67  68 SE7       29.92S
PIERRE         PTSUNNY   81  65  58 NE6       29.89F
MOBRIDGE       CLOUDY    80  66  62 CALM      29.91F
RAPID CITY     SUNNY     83  65  54 N20G28    29.97F
$$

  *****  SOME WEATHER IN NEARBY STATES *****

CITY           SKY/WX    TMP DP  RH WIND       PRES   REMARKS
GLASGOW MT     MOSUNNY   80  57  45 NW13      29.96F HAZE
GREAT FALLS MT SUNNY     80  53  39 NE24G35   30.07R HAZE
CHEYENNE WY    LGT RAIN  75  57  53 SE5       30.18F
SCOTTSBLUFF NE MOSUNNY   92  50  23 SW8       29.99F
OMAHA NE       MOSUNNY   84  68  58 E12       29.86S
DES MOINES IA  CLOUDY    75  62  64 E6        29.91S
DAVENPORT IA   PTSUNNY   72  59  63 NE9       29.94S
CHICAGO IL     PTSUNNY   62  51  67 E10       29.96S
EAU CLAIRE WI  SUNNY     73  50  44 NE6       29.98F
LA CROSSE WI   PTSUNNY   70  49  47 S5        29.98F
$$

  *****  SOME NATIONAL WEATHER *****

CITY           SKY/WX    TMP DP  RH WIND       PRES   REMARKS
LA GUARDIA NY  MOSUNNY   84  58  40 W15G24    29.76R
RALEIGH NC     PTSUNNY   85  68  56 W8        29.92F
ATLANTA GA     CLOUDY    72  66  83 SW6       30.05R
NEW ORLEANS LA CLOUDY    81  73  76 SE6       30.08S
OKLAHOMA CITY  MOSUNNY   94  70  45 S22G29    29.87F HX 100
ALBUQUERQUE NM PTSUNNY   94  47  20 VRB5      30.06F HX  90
SALT LAKE CITY PTSUNNY   95  49  20 NW12      30.02F HX  92
LOS ANGELES CA CLOUDY    71  64  78 W13       29.92R
BOISE ID       SUNNY    101  41  12 NW14      29.95F HX  96
SEATTLE WA     SUNNY     88  55  32 N13       30.00F
$$

*** WEATHER ACROSS MANITOBA...SASKATCHEWAN AND ONTARIO ***
                ***ONTARIO***

CITY           SKY/WX    TMP DP  RH WIND       PRES   REMARKS
GERALDTON      PTSUNNY   68  45  42 NW5       29.94F
THUNDER BAY    CLOUDY    66  48  52 S8        29.99F
SIOUX LOOKOUT  CLOUDY    68  59  73 VRB2      29.95F
TORONTO        MOSUNNY   72  57  60 NW20      29.83R
BIG TROUT LK   SUNNY     73  45  35 NW8       29.90S
PICKLE LAKE    PTSUNNY   66  52  59 E15       29.90R
DRYDEN         MOSUNNY   73  57  56 NW6       29.94F
KENORA         CLOUDY    75  57  53 SW9       29.95S
$$
                *** MANITOBA***

CITY           SKY/WX    TMP DP  RH WIND       PRES   REMARKS
BRANDON        CLOUDY    75  66  73 W6        29.93F
DAUPHIN        SUNNY     77  57  50 W8        29.90S
ISLAND LAKE    MOSUNNY   77  54  44 S3        29.88F
PILOT MOUND      N/A    N/A N/A N/A S7          N/A
THE PAS        CLOUDY    73  57  56 E8        29.90S SMOKE
THOMPSON       PTSUNNY   77  45  31 VRB5      29.88F
WINNIPEG       CLOUDY    75  61  60 SW7       29.93F
LYNN LAKE      CLOUDY    75  46  35 NW3       29.89F
CHURCHILL      MOSUNNY   72  43  35 E12       29.85F
GILLAM         PTSUNNY   73  45  35 NW3       29.89
$$
                ***SASKATCHEWAN***

CITY           SKY/WX    TMP DP  RH WIND       PRES   REMARKS
ESTEVAN        PTSUNNY   73  63  68 VRB2      29.96F SMOKE
KINDERSLEY     PTSUNNY   72  63  73 SW8       29.97F
LLOYDMINSTER   CLOUDY    70  61  73 W15       29.98F SMOKE
PRINCE ALBERT    N/A     77  63  61 NW7       29.90  SMOKE
REGINA         PTSUNNY   73  63  68 NW3       29.96F SMOKE


USA.gov is the U.S. government's official web portal to all federal, state and local government web resources and services.